EW1015 Weather Reports


Display with metric or nautical units.
time (UTC)temp
F
wind
direction
speed
MPH
gust
MPH
rain 1hr
in
rain 24hr
in
rain mn
in
humidity
%
barometer
mb
20260508104548 42 171 0.0 2.0 0.00 0.00 0.00 1 1012.7
20260508103055 42 171 0.0 2.0 0.00 0.00 0.00 1 1013.0
20260508101541 41 194 0.0 2.0 0.00 0.00 0.00 1 1013.3
20260508100035 41 194 0.0 1.0 0.00 0.00 0.00 1 1013.4
20260508094530 40 190 0.0 2.0 0.00 0.00 0.00 1 1013.6
20260508093029 39 180 0.0 1.0 0.00 0.00 0.00 1 1013.6
20260508091522 38 180 0.0 1.0 0.00 0.00 0.00 1 1013.5
20260508090024 38 180 0.0 1.0 0.00 0.00 0.00 1 1013.5
20260508084513 37 51 0.0 2.0 0.00 0.00 0.00 1 1013.5
20260508083009 37 138 0.0 0.0 0.00 0.00 0.00 1 1013.3
20260508081505 37 138 0.0 1.0 0.00 0.00 0.00 1 1013.3
20260508080100 37 121 1.0 2.0 0.00 0.00 0.00 1 1013.2
20260508074556 37 56 0.0 2.0 0.00 0.00 0.00 1 1013.2
20260508073103 38 319 0.0 2.0 0.00 0.00 0.00 1 1013.1
20260508071555 38 319 0.0 0.0 0.00 0.00 0.00 1 1013.4
20260508070043 40 319 0.0 1.0 0.00 0.00 0.00 1 1013.2
20260508064539 40 319 0.0 2.0 0.00 0.00 0.00 1 1013.4
20260508063033 41 288 0.0 3.0 0.00 0.00 0.00 1 1013.4
20260508061529 42 273 1.0 3.0 0.00 0.00 0.00 1 1013.6
20260508060024 43 280 0.0 3.0 0.00 0.00 0.00 1 1013.5
20260508054520 43 292 1.0 5.0 0.00 0.00 0.00 1 1013.6
20260508053031 43 327 2.0 6.0 0.00 0.00 0.00 1 1013.6
20260508051511 43 329 1.0 5.0 0.00 0.00 0.00 1 1013.7
20260508050005 43 317 4.0 7.0 0.00 0.00 0.00 1 1013.6
20260508044503 43 302 1.0 4.0 0.00 0.00 0.00 1 1013.5
20260508043104 43 300 1.0 3.0 0.00 0.00 0.00 1 1013.5
20260508041615 43 288 1.0 4.0 0.00 0.00 0.00 1 1013.5
20260508040106 42 221 0.0 2.0 0.00 0.00 0.00 1 1013.3
20260508034544 42 221 0.0 2.0 0.00 0.00 0.00 1 1013.2
20260508033041 42 221 0.0 1.0 0.00 0.00 0.00 1 1013.2
20260508031539 42 221 1.0 2.0 0.00 0.00 0.00 1 1013.1
20260508030035 42 259 0.0 3.0 0.00 0.00 0.00 1 1013.1
20260508024530 42 209 0.0 1.0 0.00 0.00 0.00 1 1013.3
20260508023023 41 209 0.0 3.0 0.00 0.00 0.00 1 1013.1
20260508021520 40 182 0.0 1.0 0.00 0.00 0.00 1 1012.9
20260508020023 40 176 1.0 3.0 0.00 0.00 0.00 1 1012.8
20260508014510 40 51 0.0 2.0 0.00 0.00 0.00 1 1012.4
20260508013006 40 60 2.0 3.0 0.00 0.00 0.00 17 1012.3
20260508011506 42 90 0.0 2.0 0.00 0.00 0.00 47 1012.4
20260508010058 43 73 0.0 2.0 0.00 0.00 0.00 53 1012.3
20260508004557 43 17 0.0 1.0 0.00 0.01 0.00 52 1012.2
20260508003048 45 17 0.0 1.0 0.00 0.01 0.00 58 1012.1
20260508001548 45 12 0.0 3.0 0.00 0.01 0.00 59 1012.0
20260508000039 46 17 1.0 3.0 0.00 0.01 0.00 59 1011.9
20260507234535 47 355 1.0 4.0 0.00 0.01 0.00 59 1011.8
20260507233051 47 351 1.0 8.0 0.00 0.01 0.00 59 1011.7
20260507231531 48 22 1.0 5.0 0.00 0.01 0.00 59 1011.7
20260507230021 48 355 2.0 8.0 0.00 0.01 0.00 57 1011.6
20260507224522 49 11 3.0 9.0 0.00 0.01 0.00 59 1011.6
20260507223016 49 5 6.0 10.0 0.00 0.01 0.00 59 1011.5
20260507221520 50 360 5.0 9.0 0.00 0.01 0.00 59 1011.5
20260507220010 50 29 3.0 9.0 0.00 0.01 0.00 58 1011.5
20260507214505 50 333 3.0 8.0 0.00 0.01 0.00 59 1011.4
20260507213005 51 355 6.0 13.0 0.00 0.01 0.00 58 1011.4
20260507211558 51 336 3.0 10.0 0.00 0.01 0.00 59 1011.5
20260507210054 52 35 4.0 9.0 0.00 0.01 0.00 58 1011.4
20260507204548 53 13 3.0 9.0 0.00 0.01 0.00 59 1011.4
20260507203046 51 35 4.0 11.0 0.00 0.01 0.00 59 1011.6
20260507201540 51 336 5.0 11.0 0.00 0.01 0.00 58 1011.5
20260507200034 52 31 4.0 10.0 0.00 0.01 0.00 58 1011.5
20260507194554 52 23 4.0 9.0 0.00 0.01 0.00 59 1011.7
20260507193029 53 11 5.0 10.0 0.00 0.01 0.00 55 1011.7
20260507191530 52 255 3.0 10.0 0.00 0.01 0.00 55 1011.8
20260507190021 52 300 7.0 11.0 0.00 0.01 0.00 56 1012.1
20260507184514 51 5 3.0 9.0 0.00 0.01 0.00 55 1012.1
20260507183015 52 286 6.0 10.0 0.00 0.01 0.00 54 1012.3
20260507181505 50 313 4.0 11.0 0.00 0.01 0.00 57 1012.6
20260507174602 51 287 8.0 12.0 0.00 0.01 0.00 56 1012.5
20260507173127 51 331 5.0 14.0 0.00 0.01 0.00 58 1012.6
20260507171554 51 305 4.0 10.0 0.00 0.01 0.00 58 1012.7
20260507170048 51 350 3.0 13.0 0.00 0.01 0.00 58 1012.8
20260507164548 51 302 6.0 15.0 0.00 0.01 0.00 60 1013.1
20260507163035 51 319 10.0 16.0 0.00 0.01 0.00 60 1013.2
20260507161531 51 294 6.0 16.0 0.00 0.01 0.00 57 1013.3
20260507160028 49 323 5.0 10.0 0.00 0.01 0.00 52 1013.5
20260507154521 49 311 5.0 10.0 0.00 0.02 0.00 53 1013.7
20260507153016 49 336 5.0 9.0 0.00 0.02 0.00 53 1013.9
20260507151512 47 360 2.0 6.0 0.00 0.02 0.00 50 1014.1
20260507150008 47 27 4.0 5.0 0.00 0.02 0.00 48 1014.3
20260507144503 46 200 1.0 4.0 0.00 0.03 0.00 49 1014.3
20260507143125 45 93 3.0 12.0 0.00 0.03 0.00 43 1014.3
20260507141631 45 64 3.0 6.0 0.00 0.03 0.00 38 1014.5
20260507140050 44 5 2.0 5.0 0.00 0.03 0.00 30 1014.8
20260507134546 44 309 3.0 8.0 0.00 0.04 0.00 11 1014.8
20260507133041 45 41 3.0 9.0 0.00 0.04 0.00 14 1014.8
20260507131539 45 53 4.0 7.0 0.00 0.04 0.00 4 1014.8
20260507130032 44 41 2.0 5.0 0.00 0.04 0.00 1 1014.9
20260507124527 44 345 0.0 1.0 0.00 0.08 0.00 1 1014.6
20260507123024 44 325 1.0 4.0 0.00 0.08 0.00 1 1014.8
20260507121521 43 240 0.0 3.0 0.00 0.08 0.00 1 1014.6
20260507120036 43 134 1.0 3.0 0.00 0.08 0.00 1 1014.6
20260507114517 41 247 0.0 4.0 0.00 0.12 0.00 1 1014.6
20260507113033 40 215 1.0 6.0 0.00 0.12 0.00 1 1014.7
20260507111509 39 260 2.0 3.0 0.00 0.12 0.00 1 1014.6
20260507110010 37 180 0.0 3.0 0.00 0.12 0.00 1 1014.2